SU7PY ORBI-HECA

Flight info

Callsign SU7PY
Flight time N/A
Altitude 28000
Route ELODI B411 ULINA M690 NOVPA N697 MENLI L677 CVO
Aircraft TBM8/L-SDFGRWY/S

Departure

Time 2026-05-06 12:53
Airport Baghdad International Airport / New Al Muthana Air Base (ORBI)

Arrival

Time N/A
Airport Cairo International Airport (HECA)
Time Latitude Longitude Altitude Speed Heading
2026-05-06 12:36 33.26617 44.22561 134 ft 0 kts 90°
2026-05-06 12:43 33.26617 44.22568 134 ft 3 kts 92°
2026-05-06 12:43 33.26629 44.22632 134 ft 12 kts 53°
2026-05-06 12:43 33.26707 44.22648 134 ft 11 kts
2026-05-06 12:43 33.26779 44.22648 134 ft 10 kts
2026-05-06 12:44 33.26843 44.22647 134 ft 9 kts 360°
2026-05-06 12:44 33.26902 44.22647 134 ft 8 kts
2026-05-06 12:44 33.26959 44.22658 134 ft 10 kts 39°
2026-05-06 12:44 33.27006 44.22742 134 ft 15 kts 59°
2026-05-06 12:45 33.27066 44.22867 134 ft 18 kts 59°
2026-05-06 12:45 33.27126 44.22991 134 ft 17 kts 60°
2026-05-06 12:45 33.27237 44.23221 134 ft 15 kts 59°
2026-05-06 12:46 33.27290 44.23330 134 ft 15 kts 62°
2026-05-06 12:46 33.27341 44.23435 134 ft 14 kts 61°
2026-05-06 12:46 33.27368 44.23546 134 ft 14 kts 120°
2026-05-06 12:46 33.27291 44.23606 134 ft 13 kts 150°
2026-05-06 12:47 33.27208 44.23663 134 ft 15 kts 150°
2026-05-06 12:47 33.27106 44.23733 134 ft 19 kts 150°
2026-05-06 12:47 33.26982 44.23819 134 ft 22 kts 150°
2026-05-06 12:47 33.26842 44.23915 134 ft 24 kts 149°
2026-05-06 12:48 33.26711 44.24004 135 ft 20 kts 149°
2026-05-06 12:48 33.26602 44.24079 134 ft 17 kts 149°
2026-05-06 12:48 33.26509 44.24144 134 ft 15 kts 152°
2026-05-06 12:48 33.26416 44.24206 134 ft 16 kts 150°
2026-05-06 12:49 33.26307 44.24278 134 ft 20 kts 153°
2026-05-06 12:49 33.26179 44.24366 134 ft 23 kts 147°
2026-05-06 12:49 33.26038 44.24466 134 ft 24 kts 149°
2026-05-06 12:49 33.25899 44.24563 135 ft 21 kts 150°
2026-05-06 12:50 33.25782 44.24643 134 ft 18 kts 150°
2026-05-06 12:50 33.25712 44.24692 134 ft 17 kts 148°
2026-05-06 12:50 33.25604 44.24765 134 ft 19 kts 150°
2026-05-06 12:50 33.25479 44.24849 134 ft 21 kts 150°
2026-05-06 12:51 33.25363 44.24931 134 ft 18 kts 150°
2026-05-06 12:51 33.25266 44.25002 134 ft 15 kts 145°
2026-05-06 12:51 33.25207 44.25093 134 ft 14 kts 90°
2026-05-06 12:51 33.25246 44.25200 133 ft 14 kts 59°
2026-05-06 12:52 33.25329 44.25211 133 ft 15 kts 332°
2026-05-06 12:52 33.25484 44.25104 133 ft 48 kts 330°
2026-05-06 12:52 33.25932 44.24799 136 ft 98 kts 331°
2026-05-06 12:52 33.26613 44.24368 275 ft 121 kts 327°
2026-05-06 12:53 33.27366 44.23815 637 ft 134 kts 326°
2026-05-06 12:53 33.28212 44.23197 1013 ft 148 kts 328°
2026-05-06 12:53 33.29125 44.22581 1404 ft 152 kts 333°
2026-05-06 12:53 33.29948 44.21824 1954 ft 148 kts 305°
2026-05-06 12:54 33.30210 44.20664 2389 ft 151 kts 265°
2026-05-06 12:54 33.29694 44.19573 2844 ft 156 kts 222°
2026-05-06 12:54 33.28659 44.19127 3337 ft 161 kts 194°
2026-05-06 12:54 33.27580 44.18908 3912 ft 155 kts 193°
2026-05-06 12:55 33.26520 44.18634 4361 ft 155 kts 199°
2026-05-06 12:55 33.25473 44.18315 4868 ft 156 kts 197°
2026-05-06 12:55 33.24415 44.18031 5351 ft 154 kts 198°
2026-05-06 12:55 33.23379 44.17758 5879 ft 151 kts 201°
2026-05-06 12:56 33.22366 44.17477 6392 ft 148 kts 204°
2026-05-06 12:56 33.21383 44.17208 6849 ft 147 kts 204°
2026-05-06 12:56 33.20387 44.16937 7283 ft 147 kts 204°
2026-05-06 12:56 33.19392 44.16664 7732 ft 146 kts 203°
2026-05-06 12:57 33.18401 44.16389 8169 ft 146 kts 202°
2026-05-06 12:57 33.17404 44.16118 8611 ft 146 kts 202°
2026-05-06 12:57 33.16413 44.15846 9065 ft 146 kts 201°
2026-05-06 12:57 33.15425 44.15576 9517 ft 145 kts 201°
2026-05-06 12:58 33.14441 44.15306 9965 ft 145 kts 201°
2026-05-06 12:58 33.13458 44.15037 10371 ft 145 kts 201°
2026-05-06 12:58 33.12473 44.14768 10772 ft 145 kts 202°
2026-05-06 12:58 33.11492 44.14497 11175 ft 144 kts 201°
2026-05-06 12:59 33.10527 44.14237 11581 ft 144 kts 202°
2026-05-06 12:59 33.09553 44.13970 11985 ft 144 kts 202°
2026-05-06 12:59 33.08580 44.13704 12393 ft 143 kts 203°
2026-05-06 12:59 33.07610 44.13439 12804 ft 143 kts 202°
2026-05-06 13:00 33.06637 44.13173 13194 ft 143 kts 203°
2026-05-06 13:00 33.05663 44.12907 13594 ft 144 kts 203°
2026-05-06 13:00 33.04691 44.12642 13993 ft 142 kts 203°
2026-05-06 13:00 33.03737 44.12382 14337 ft 143 kts 203°
2026-05-06 13:01 33.02766 44.12116 14679 ft 143 kts 203°
2026-05-06 13:01 33.01792 44.11851 15013 ft 144 kts 203°
2026-05-06 13:01 33.00813 44.11584 15348 ft 145 kts 203°
2026-05-06 13:01 32.99831 44.11316 15690 ft 145 kts 203°
2026-05-06 13:02 32.98844 44.11047 16034 ft 145 kts 204°
2026-05-06 13:02 32.97855 44.10778 16377 ft 146 kts 204°
2026-05-06 13:02 32.96866 44.10509 16722 ft 146 kts 204°
2026-05-06 13:02 32.95874 44.10238 17065 ft 146 kts 204°
2026-05-06 13:03 32.94879 44.09967 17403 ft 147 kts 204°
2026-05-06 13:03 32.93879 44.09695 17739 ft 148 kts 204°
2026-05-06 13:03 32.92875 44.09421 18078 ft 148 kts 204°
2026-05-06 13:03 32.91870 44.09148 18395 ft 148 kts 204°
2026-05-06 13:04 32.90861 44.08873 18685 ft 149 kts 204°
2026-05-06 13:04 32.89847 44.08597 18973 ft 149 kts 204°
2026-05-06 13:04 32.88842 44.08323 19260 ft 150 kts 204°
2026-05-06 13:04 32.87809 44.08042 19549 ft 151 kts 204°
2026-05-06 13:05 32.86794 44.07766 19825 ft 152 kts 204°
2026-05-06 13:05 32.85760 44.07485 20102 ft 152 kts 204°
2026-05-06 13:05 32.84723 44.07203 20388 ft 153 kts 205°
2026-05-06 13:05 32.83682 44.06921 20670 ft 154 kts 205°
2026-05-06 13:06 32.82639 44.06637 20951 ft 154 kts 205°
2026-05-06 13:06 32.81586 44.06351 21234 ft 155 kts 205°
2026-05-06 13:06 32.80532 44.06065 21514 ft 156 kts 205°
2026-05-06 13:06 32.79476 44.05779 21799 ft 156 kts 205°
2026-05-06 13:07 32.78431 44.05495 22082 ft 157 kts 205°
2026-05-06 13:07 32.77364 44.05210 22365 ft 157 kts 205°
2026-05-06 13:07 32.76293 44.04923 22641 ft 158 kts 205°
2026-05-06 13:07 32.75218 44.04629 22919 ft 159 kts 205°
2026-05-06 13:08 32.74135 44.04335 23195 ft 160 kts 205°
2026-05-06 13:08 32.73049 44.04040 23472 ft 160 kts 205°
2026-05-06 13:08 32.71956 44.03744 23716 ft 161 kts 205°
2026-05-06 13:08 32.70861 44.03447 23937 ft 162 kts 205°
2026-05-06 13:09 32.69763 44.03149 24165 ft 162 kts 205°
2026-05-06 13:09 32.68658 44.02850 24392 ft 163 kts 206°
2026-05-06 13:09 32.67555 44.02552 24617 ft 163 kts 206°
2026-05-06 13:09 32.66443 44.02251 24840 ft 164 kts 206°
2026-05-06 13:10 32.65344 44.01953 25063 ft 164 kts 206°
2026-05-06 13:10 32.64223 44.01651 25288 ft 165 kts 206°
2026-05-06 13:10 32.63103 44.01348 25513 ft 165 kts 206°
2026-05-06 13:10 32.61982 44.01045 25737 ft 166 kts 206°
2026-05-06 13:11 32.60850 44.00738 25949 ft 166 kts 206°
2026-05-06 13:11 32.59718 44.00432 26167 ft 167 kts 206°
2026-05-06 13:11 32.58597 44.00130 26382 ft 167 kts 206°
2026-05-06 13:11 32.57455 43.99821 26591 ft 168 kts 206°
2026-05-06 13:12 32.56313 43.99513 26804 ft 169 kts 206°
2026-05-06 13:12 32.55165 43.99203 27014 ft 169 kts 206°
2026-05-06 13:12 32.54012 43.98892 27222 ft 170 kts 206°
2026-05-06 13:12 32.52871 43.98584 27424 ft 171 kts 206°
2026-05-06 13:13 32.51712 43.98272 27623 ft 171 kts 206°
2026-05-06 13:13 32.50549 43.97958 27830 ft 172 kts 206°
2026-05-06 13:13 32.49379 43.97643 28002 ft 174 kts 206°
2026-05-06 13:13 32.48168 43.97308 28004 ft 184 kts 205°
2026-05-06 13:14 32.46890 43.96959 28010 ft 193 kts 205°
2026-05-06 13:14 32.45556 43.96600 28013 ft 201 kts 204°
2026-05-06 13:14 32.44169 43.96226 28020 ft 208 kts 204°
2026-05-06 13:14 32.42730 43.95839 28018 ft 215 kts 204°
2026-05-06 13:15 32.41254 43.95443 28019 ft 220 kts 204°
2026-05-06 13:15 32.39738 43.95035 28017 ft 225 kts 204°
2026-05-06 13:15 32.38194 43.94620 28020 ft 230 kts 203°
2026-05-06 13:15 32.36643 43.94203 28017 ft 233 kts 203°
2026-05-06 13:16 32.35050 43.93775 28016 ft 237 kts 203°
2026-05-06 13:16 32.33433 43.93341 28016 ft 239 kts 203°
2026-05-06 13:16 32.31798 43.92903 28014 ft 242 kts 203°
2026-05-06 13:16 32.30150 43.92461 28013 ft 244 kts 203°
2026-05-06 13:17 32.28487 43.92014 28012 ft 246 kts 202°
2026-05-06 13:17 32.26815 43.91566 28010 ft 247 kts 202°
2026-05-06 13:17 32.25131 43.91115 28010 ft 248 kts 202°
2026-05-06 13:17 32.23442 43.90662 28007 ft 249 kts 202°
2026-05-06 13:18 32.21746 43.90208 28004 ft 250 kts 202°
2026-05-06 13:18 32.20046 43.89753 28005 ft 251 kts 202°
2026-05-06 13:18 32.18361 43.89302 27995 ft 252 kts 202°
2026-05-06 13:18 32.16653 43.88845 27998 ft 252 kts 202°
2026-05-06 13:19 32.14937 43.88387 27993 ft 252 kts 202°
2026-05-06 13:19 32.13224 43.87929 27998 ft 253 kts 202°
2026-05-06 13:19 32.11510 43.87471 27992 ft 253 kts 202°
2026-05-06 13:19 32.09789 43.87011 27990 ft 253 kts 202°
2026-05-06 13:20 32.08072 43.86553 27994 ft 253 kts 202°
2026-05-06 13:20 32.06419 43.85950 28001 ft 244 kts 214°
2026-05-06 13:20 32.05040 43.84844 28012 ft 237 kts 226°
2026-05-06 13:20 32.04000 43.83362 28013 ft 235 kts 239°
2026-05-06 13:21 32.03278 43.81633 28008 ft 235 kts 244°
2026-05-06 13:21 32.02578 43.79888 28004 ft 236 kts 244°
2026-05-06 13:21 32.01880 43.78165 28007 ft 236 kts 244°
2026-05-06 13:21 32.01180 43.76417 28013 ft 236 kts 244°
2026-05-06 13:22 32.00479 43.74660 28012 ft 236 kts 244°
2026-05-06 13:22 31.99777 43.72908 28011 ft 236 kts 244°
2026-05-06 13:22 31.99072 43.71152 28006 ft 237 kts 244°
2026-05-06 13:22 31.98367 43.69396 28005 ft 237 kts 244°
2026-05-06 13:23 31.97663 43.67641 28005 ft 237 kts 244°
2026-05-06 13:23 31.96957 43.65883 28002 ft 237 kts 244°
2026-05-06 13:23 31.96250 43.64126 28003 ft 237 kts 244°
2026-05-06 13:23 31.95553 43.62392 27998 ft 237 kts 244°
2026-05-06 13:24 31.94845 43.60630 27998 ft 237 kts 244°
2026-05-06 13:24 31.94136 43.58869 28000 ft 237 kts 244°
2026-05-06 13:24 31.93429 43.57112 28001 ft 238 kts 244°
2026-05-06 13:24 31.92720 43.55352 28004 ft 238 kts 244°
2026-05-06 13:25 31.92010 43.53592 28003 ft 238 kts 244°
2026-05-06 13:25 31.91301 43.51831 27999 ft 238 kts 244°
2026-05-06 13:25 31.90588 43.50065 27996 ft 238 kts 244°
2026-05-06 13:25 31.89877 43.48303 27992 ft 239 kts 244°
2026-05-06 13:26 31.89163 43.46535 27997 ft 239 kts 244°
2026-05-06 13:26 31.88461 43.44798 27995 ft 239 kts 244°
2026-05-06 13:26 31.87747 43.43032 27991 ft 239 kts 244°
2026-05-06 13:26 31.87034 43.41268 27993 ft 239 kts 244°
2026-05-06 13:27 31.86320 43.39503 27988 ft 239 kts 244°
2026-05-06 13:27 31.85607 43.37742 27995 ft 239 kts 244°
2026-05-06 13:27 31.84893 43.35981 27993 ft 239 kts 244°
2026-05-06 13:27 31.84179 43.34218 27993 ft 239 kts 244°
2026-05-06 13:28 31.83463 43.32452 27990 ft 239 kts 244°
2026-05-06 13:28 31.82746 43.30686 27991 ft 239 kts 244°
2026-05-06 13:28 31.82030 43.28924 27989 ft 239 kts 244°
2026-05-06 13:28 31.81313 43.27161 27994 ft 239 kts 244°
2026-05-06 13:29 31.80603 43.25414 27984 ft 239 kts 244°
2026-05-06 13:29 31.79885 43.23650 27993 ft 239 kts 244°
2026-05-06 13:29 31.79167 43.21885 27987 ft 239 kts 244°
2026-05-06 13:29 31.78448 43.20121 27995 ft 239 kts 244°
2026-05-06 13:30 31.77730 43.18359 27985 ft 239 kts 244°
2026-05-06 13:30 31.77013 43.16599 27991 ft 239 kts 244°
2026-05-06 13:30 31.76293 43.14835 27991 ft 239 kts 244°
2026-05-06 13:30 31.75573 43.13068 27995 ft 239 kts 244°
2026-05-06 13:31 31.74852 43.11303 27986 ft 240 kts 244°
2026-05-06 13:31 31.74138 43.09557 27988 ft 240 kts 244°
2026-05-06 13:31 31.73416 43.07789 27990 ft 240 kts 244°
2026-05-06 13:31 31.72693 43.06021 27990 ft 240 kts 244°
2026-05-06 13:32 31.71969 43.04253 27990 ft 240 kts 244°
2026-05-06 13:32 31.71245 43.02483 27991 ft 240 kts 244°
2026-05-06 13:32 31.70522 43.00717 27989 ft 240 kts 244°
2026-05-06 13:32 31.69794 42.98945 27985 ft 240 kts 244°
2026-05-06 13:33 31.69053 42.97184 27987 ft 241 kts 243°
2026-05-06 13:33 31.68311 42.95423 27984 ft 241 kts 244°
2026-05-06 13:33 31.67571 42.93658 27988 ft 241 kts 244°
2026-05-06 13:33 31.66840 42.91912 27989 ft 241 kts 244°
2026-05-06 13:34 31.66102 42.90152 27986 ft 241 kts 244°
2026-05-06 13:34 31.65361 42.88389 27992 ft 241 kts 244°
2026-05-06 13:34 31.64609 42.86632 27990 ft 240 kts 242°
2026-05-06 13:34 31.63854 42.84880 27994 ft 240 kts 243°
2026-05-06 13:35 31.63121 42.83122 27991 ft 240 kts 243°
2026-05-06 13:35 31.62390 42.81364 27991 ft 240 kts 243°
2026-05-06 13:35 31.61652 42.79608 27993 ft 239 kts 243°
2026-05-06 13:35 31.60915 42.77858 27991 ft 239 kts 243°
2026-05-06 13:36 31.60177 42.76107 27988 ft 239 kts 243°
2026-05-06 13:36 31.59441 42.74359 27996 ft 239 kts 243°
2026-05-06 13:36 31.58703 42.72610 27992 ft 239 kts 243°
2026-05-06 13:36 31.57966 42.70863 27995 ft 239 kts 243°
2026-05-06 13:37 31.57229 42.69116 27996 ft 239 kts 243°
2026-05-06 13:37 31.56492 42.67369 27995 ft 239 kts 243°
2026-05-06 13:37 31.55755 42.65624 27993 ft 239 kts 243°
2026-05-06 13:37 31.55025 42.63897 27997 ft 239 kts 243°
2026-05-06 13:38 31.54285 42.62150 27996 ft 239 kts 243°
2026-05-06 13:38 31.53797 42.60995 27995 ft 239 kts 243°
2026-05-06 13:38 31.53060 42.59251 27995 ft 239 kts 243°
2026-05-06 13:38 31.52322 42.57509 27993 ft 239 kts 243°
2026-05-06 13:39 31.51583 42.55765 27998 ft 239 kts 243°
2026-05-06 13:39 31.50604 42.53454 27996 ft 239 kts 243°
2026-05-06 13:39 31.50106 42.52278 27995 ft 239 kts 243°
2026-05-06 13:39 31.49366 42.50535 27994 ft 239 kts 243°
2026-05-06 13:40 31.48387 42.48229 27994 ft 239 kts 243°
2026-05-06 13:40 31.47895 42.47071 27996 ft 239 kts 243°
2026-05-06 13:40 31.47156 42.45328 27997 ft 239 kts 243°
2026-05-06 13:40 31.46416 42.43586 27996 ft 239 kts 243°
2026-05-06 13:41 31.45675 42.41844 27995 ft 239 kts 243°
2026-05-06 13:41 31.44932 42.40098 27994 ft 239 kts 243°
2026-05-06 13:41 31.44189 42.38353 27996 ft 239 kts 243°
2026-05-06 13:41 31.43445 42.36605 27995 ft 239 kts 243°
2026-05-06 13:42 31.42704 42.34864 27996 ft 239 kts 243°
2026-05-06 13:42 31.41960 42.33120 27998 ft 239 kts 243°
2026-05-06 13:42 31.41226 42.31399 27995 ft 239 kts 243°
2026-05-06 13:42 31.40482 42.29656 27998 ft 239 kts 243°
2026-05-06 13:43 31.39737 42.27910 27995 ft 239 kts 243°
2026-05-06 13:43 31.38994 42.26169 27994 ft 239 kts 243°
2026-05-06 13:43 31.38251 42.24429 27993 ft 239 kts 243°
2026-05-06 13:43 31.37506 42.22687 27996 ft 239 kts 243°
2026-05-06 13:44 31.36762 42.20947 27996 ft 239 kts 243°
2026-05-06 13:44 31.36018 42.19206 27997 ft 239 kts 243°
2026-05-06 13:44 31.35271 42.17461 28001 ft 239 kts 243°
2026-05-06 13:44 31.34534 42.15738 27993 ft 240 kts 243°
2026-05-06 13:45 31.33786 42.13993 28000 ft 240 kts 243°
2026-05-06 13:45 31.32290 42.10503 28003 ft 240 kts 243°
2026-05-06 13:45 31.31541 42.08757 28004 ft 240 kts 243°
2026-05-06 13:46 31.30793 42.07014 27997 ft 240 kts 243°
2026-05-06 13:46 31.30044 42.05268 27993 ft 240 kts 243°
2026-05-06 13:46 31.29296 42.03524 28001 ft 240 kts 243°
2026-05-06 13:46 31.28545 42.01779 28001 ft 240 kts 243°
2026-05-06 13:47 31.27795 42.00034 28007 ft 240 kts 243°
2026-05-06 13:47 31.27054 41.98312 28004 ft 240 kts 243°
2026-05-06 13:47 31.26304 41.96570 28010 ft 240 kts 243°
2026-05-06 13:47 31.25552 41.94824 28003 ft 240 kts 243°
2026-05-06 13:48 31.24802 41.93082 28007 ft 240 kts 243°
2026-05-06 13:48 31.24050 41.91337 28010 ft 240 kts 243°
2026-05-06 13:48 31.23299 41.89595 28007 ft 240 kts 243°
2026-05-06 13:48 31.22544 41.87847 28007 ft 241 kts 243°
2026-05-06 13:49 31.21792 41.86103 28010 ft 241 kts 243°
2026-05-06 13:49 31.21036 41.84353 28006 ft 241 kts 243°
2026-05-06 13:49 31.20284 41.82601 28008 ft 241 kts 243°
2026-05-06 13:49 31.19537 41.80846 28012 ft 241 kts 243°
2026-05-06 13:50 31.18788 41.79090 28013 ft 241 kts 243°
2026-05-06 13:50 31.18037 41.77337 28011 ft 241 kts 243°
2026-05-06 13:50 31.17286 41.75581 28012 ft 241 kts 243°
2026-05-06 13:50 31.16544 41.73849 28012 ft 241 kts 243°
2026-05-06 13:51 31.15791 41.72089 28016 ft 241 kts 243°
2026-05-06 13:51 31.15040 41.70336 28015 ft 241 kts 243°
2026-05-06 13:51 31.14288 41.68582 28013 ft 242 kts 243°
2026-05-06 13:51 31.13534 41.66825 28008 ft 242 kts 243°
2026-05-06 13:52 31.12780 41.65068 28015 ft 242 kts 243°
2026-05-06 13:52 31.12026 41.63311 28009 ft 242 kts 243°
2026-05-06 13:52 31.11271 41.61553 28025 ft 242 kts 243°
2026-05-06 13:52 31.10525 41.59818 28027 ft 242 kts 243°
2026-05-06 13:53 31.09769 41.58058 28015 ft 243 kts 243°
2026-05-06 13:53 31.09010 41.56293 28027 ft 243 kts 243°
2026-05-06 13:53 31.08252 41.54533 28027 ft 243 kts 243°
2026-05-06 13:53 31.07492 41.52767 28023 ft 243 kts 243°
2026-05-06 13:54 31.06735 41.51010 28029 ft 243 kts 243°
2026-05-06 13:54 31.05977 41.49252 28028 ft 243 kts 243°
2026-05-06 13:54 31.05219 41.47494 28029 ft 243 kts 243°
2026-05-06 13:54 31.04461 41.45736 28037 ft 243 kts 243°
2026-05-06 13:55 31.03701 41.43977 28032 ft 243 kts 243°
2026-05-06 13:55 31.02951 41.42241 28040 ft 243 kts 243°
2026-05-06 13:55 31.02191 41.40480 28044 ft 243 kts 243°
2026-05-06 13:55 31.01431 41.38722 28040 ft 243 kts 243°
2026-05-06 13:56 31.00671 41.36964 28039 ft 243 kts 243°
2026-05-06 13:56 30.99910 41.35205 28046 ft 243 kts 243°
2026-05-06 13:56 30.99147 41.33443 28041 ft 243 kts 243°
2026-05-06 13:56 30.98387 41.31688 28038 ft 243 kts 243°
2026-05-06 13:57 30.97624 41.29927 28048 ft 243 kts 243°
2026-05-06 13:57 30.96864 41.28168 28040 ft 241 kts 244°
2026-05-06 13:57 30.96121 41.26449 28046 ft 240 kts 243°
2026-05-06 13:57 30.95358 41.24707 28040 ft 241 kts 243°
2026-05-06 13:58 30.94601 41.22963 28042 ft 241 kts 244°
2026-05-06 13:58 30.93845 41.21214 28043 ft 242 kts 243°
2026-05-06 13:58 30.93085 41.19466 28045 ft 242 kts 243°
2026-05-06 13:58 30.92325 41.17718 28042 ft 242 kts 243°
2026-05-06 13:59 30.91561 41.15963 28043 ft 243 kts 243°
2026-05-06 13:59 30.90804 41.14209 28034 ft 242 kts 245°
2026-05-06 13:59 30.90196 41.12373 28043 ft 243 kts 249°
2026-05-06 13:59 30.89613 41.10525 28037 ft 243 kts 249°
2026-05-06 14:00 30.89014 41.08681 28038 ft 244 kts 248°
2026-05-06 14:00 30.88413 41.06837 28044 ft 244 kts 249°
2026-05-06 14:00 30.87813 41.04989 28042 ft 244 kts 249°
2026-05-06 14:00 30.87216 41.03143 28040 ft 244 kts 249°
2026-05-06 14:01 30.86616 41.01296 28042 ft 244 kts 249°
2026-05-06 14:01 30.86022 40.99468 28047 ft 244 kts 249°
2026-05-06 14:01 30.85422 40.97621 28041 ft 244 kts 249°
2026-05-06 14:01 30.84821 40.95772 28042 ft 244 kts 249°
2026-05-06 14:02 30.84220 40.93923 28045 ft 244 kts 249°
2026-05-06 14:02 30.83617 40.92071 28047 ft 244 kts 249°
2026-05-06 14:02 30.83015 40.90221 28044 ft 245 kts 249°
2026-05-06 14:02 30.82412 40.88372 28042 ft 245 kts 249°
2026-05-06 14:03 30.81807 40.86515 28038 ft 245 kts 249°
2026-05-06 14:03 30.81204 40.84665 28043 ft 245 kts 249°
2026-05-06 14:03 30.80598 40.82812 28047 ft 245 kts 249°
2026-05-06 14:03 30.79993 40.80959 28044 ft 245 kts 249°
2026-05-06 14:04 30.79388 40.79108 28038 ft 245 kts 249°
2026-05-06 14:04 30.78784 40.77259 28042 ft 245 kts 249°
2026-05-06 14:04 30.78178 40.75408 28053 ft 245 kts 249°
2026-05-06 14:04 30.77573 40.73559 28058 ft 245 kts 249°
2026-05-06 14:05 30.76966 40.71703 28059 ft 245 kts 249°
2026-05-06 14:05 30.76366 40.69873 28054 ft 245 kts 249°
2026-05-06 14:05 30.75758 40.68018 28058 ft 245 kts 249°
2026-05-06 14:05 30.75150 40.66164 28061 ft 246 kts 249°
2026-05-06 14:06 30.74541 40.64309 28049 ft 246 kts 249°
2026-05-06 14:06 30.73930 40.62448 28060 ft 246 kts 249°
2026-05-06 14:06 30.73321 40.60593 28064 ft 246 kts 249°
2026-05-06 14:06 30.72710 40.58736 28056 ft 246 kts 249°
2026-05-06 14:07 30.72098 40.56875 28053 ft 246 kts 249°
2026-05-06 14:07 30.71486 40.55016 28061 ft 246 kts 249°
2026-05-06 14:07 30.70875 40.53159 28059 ft 246 kts 249°
2026-05-06 14:07 30.70262 40.51300 28066 ft 246 kts 249°
2026-05-06 14:08 30.69649 40.49440 28065 ft 246 kts 249°
2026-05-06 14:08 30.69045 40.47607 28065 ft 246 kts 249°
2026-05-06 14:08 30.68431 40.45748 28066 ft 246 kts 249°
2026-05-06 14:08 30.67817 40.43887 28065 ft 247 kts 249°
2026-05-06 14:09 30.67201 40.42025 28064 ft 247 kts 249°
2026-05-06 14:09 30.66591 40.40168 28065 ft 245 kts 249°
2026-05-06 14:09 30.65978 40.38320 28063 ft 245 kts 249°
2026-05-06 14:09 30.65360 40.36466 28062 ft 246 kts 249°
2026-05-06 14:10 30.64746 40.34609 28063 ft 246 kts 249°
2026-05-06 14:10 30.64133 40.32752 28055 ft 246 kts 249°
2026-05-06 14:10 30.63518 40.30897 28066 ft 247 kts 249°
2026-05-06 14:10 30.62900 40.29035 28068 ft 247 kts 249°
2026-05-06 14:11 30.62283 40.27175 28068 ft 247 kts 249°
2026-05-06 14:11 30.61664 40.25311 28067 ft 247 kts 249°
2026-05-06 14:11 30.61044 40.23445 28068 ft 247 kts 249°
2026-05-06 14:11 30.60424 40.21581 28068 ft 248 kts 248°
2026-05-06 14:12 30.59803 40.19714 28068 ft 248 kts 249°
2026-05-06 14:12 30.59190 40.17871 28068 ft 248 kts 249°
2026-05-06 14:12 30.58570 40.16007 28067 ft 248 kts 249°
2026-05-06 14:12 30.57946 40.14136 28066 ft 248 kts 249°
2026-05-06 14:13 30.57323 40.12265 28066 ft 248 kts 249°
2026-05-06 14:13 30.56701 40.10398 28067 ft 248 kts 249°
2026-05-06 14:13 30.56075 40.08524 28070 ft 248 kts 249°
2026-05-06 14:13 30.55448 40.06645 28070 ft 249 kts 249°
2026-05-06 14:14 30.54824 40.04777 28070 ft 249 kts 249°
2026-05-06 14:14 30.54207 40.02929 28067 ft 249 kts 248°
2026-05-06 14:14 30.53581 40.01057 28068 ft 249 kts 249°
2026-05-06 14:14 30.52954 39.99183 28070 ft 249 kts 248°
2026-05-06 14:15 30.52327 39.97309 28069 ft 249 kts 248°
2026-05-06 14:15 30.51699 39.95435 28066 ft 249 kts 248°
2026-05-06 14:15 30.51071 39.93563 28071 ft 249 kts 249°
2026-05-06 14:15 30.50443 39.91688 28069 ft 249 kts 248°
2026-05-06 14:16 30.49814 39.89815 28068 ft 249 kts 249°
2026-05-06 14:16 30.49182 39.87933 28069 ft 249 kts 248°
2026-05-06 14:16 30.48554 39.86063 28066 ft 249 kts 248°
2026-05-06 14:16 30.47924 39.84186 28069 ft 249 kts 248°
2026-05-06 14:17 30.47294 39.82313 28069 ft 249 kts 248°
2026-05-06 14:17 30.46661 39.80433 28071 ft 250 kts 249°
2026-05-06 14:17 30.46038 39.78581 28069 ft 250 kts 249°
2026-05-06 14:17 30.45407 39.76708 28071 ft 250 kts 248°
2026-05-06 14:18 30.44775 39.74831 28070 ft 250 kts 248°
2026-05-06 14:18 30.44142 39.72955 28069 ft 250 kts 248°
2026-05-06 14:18 30.43507 39.71073 28070 ft 250 kts 248°
2026-05-06 14:18 30.42875 39.69200 28073 ft 250 kts 248°
2026-05-06 14:19 30.42241 39.67322 28072 ft 250 kts 248°
2026-05-06 14:19 30.41606 39.65445 28072 ft 250 kts 248°
2026-05-06 14:19 30.40972 39.63570 28071 ft 250 kts 248°
2026-05-06 14:19 30.40346 39.61721 28070 ft 250 kts 248°
2026-05-06 14:20 30.39711 39.59846 28070 ft 250 kts 248°
2026-05-06 14:20 30.39074 39.57965 28071 ft 250 kts 248°
2026-05-06 14:20 30.38438 39.56090 28071 ft 250 kts 248°
2026-05-06 14:20 30.37802 39.54215 28071 ft 250 kts 248°
2026-05-06 14:21 30.37165 39.52337 28069 ft 250 kts 248°
2026-05-06 14:21 30.36526 39.50457 28074 ft 250 kts 248°
2026-05-06 14:21 30.35895 39.48599 28070 ft 251 kts 248°
2026-05-06 14:21 30.35249 39.46698 28069 ft 251 kts 248°
2026-05-06 14:22 30.34618 39.44844 28073 ft 251 kts 248°
2026-05-06 14:22 30.33978 39.42965 28072 ft 251 kts 248°
2026-05-06 14:22 30.33339 39.41086 28073 ft 251 kts 248°
2026-05-06 14:22 30.32699 39.39209 28071 ft 251 kts 248°
2026-05-06 14:23 30.32057 39.37326 28069 ft 251 kts 248°
2026-05-06 14:23 30.31417 39.35450 28071 ft 251 kts 248°
2026-05-06 14:23 30.30775 39.33568 28072 ft 251 kts 248°
2026-05-06 14:23 30.30132 39.31687 28074 ft 251 kts 248°
2026-05-06 14:24 30.29491 39.29808 28073 ft 251 kts 248°
2026-05-06 14:24 30.28847 39.27927 28070 ft 251 kts 248°
2026-05-06 14:24 30.28212 39.26069 28072 ft 251 kts 248°
2026-05-06 14:24 30.27568 39.24188 28071 ft 251 kts 248°
2026-05-06 14:25 30.26924 39.22305 28070 ft 251 kts 248°
2026-05-06 14:25 30.26279 39.20423 28068 ft 251 kts 248°
2026-05-06 14:25 30.25634 39.18543 28070 ft 251 kts 248°
2026-05-06 14:25 30.25207 39.17295 28070 ft 251 kts 248°
2026-05-06 14:26 30.24561 39.15412 28066 ft 252 kts 248°
2026-05-06 14:26 30.23915 39.13531 28068 ft 252 kts 248°
2026-05-06 14:26 30.23267 39.11645 28067 ft 252 kts 248°
2026-05-06 14:26 30.22621 39.09764 28065 ft 252 kts 248°
2026-05-06 14:27 30.21980 39.07900 28066 ft 252 kts 248°
2026-05-06 14:27 30.21332 39.06017 28064 ft 252 kts 248°
2026-05-06 14:27 30.20683 39.04133 28064 ft 252 kts 248°
2026-05-06 14:27 30.20036 39.02251 28065 ft 252 kts 248°
2026-05-06 14:28 30.19385 39.00364 28061 ft 252 kts 248°
2026-05-06 14:28 30.18736 38.98482 28064 ft 252 kts 248°
2026-05-06 14:28 30.18087 38.96598 28065 ft 252 kts 248°
2026-05-06 14:28 30.17437 38.94715 28060 ft 252 kts 248°
2026-05-06 14:29 30.16785 38.92828 28061 ft 252 kts 248°
2026-05-06 14:29 30.16134 38.90943 28060 ft 253 kts 248°
2026-05-06 14:29 30.15489 38.89080 28055 ft 253 kts 248°
2026-05-06 14:29 30.14837 38.87193 28049 ft 253 kts 248°
2026-05-06 14:30 30.14182 38.85300 28051 ft 253 kts 248°
2026-05-06 14:30 30.13526 38.83409 28045 ft 253 kts 248°
2026-05-06 14:30 30.12872 38.81519 28045 ft 254 kts 248°
2026-05-06 14:30 30.12248 38.79609 28047 ft 254 kts 253°
2026-05-06 14:31 30.11918 38.77623 28048 ft 255 kts 258°
2026-05-06 14:31 30.11589 38.75613 28045 ft 255 kts 257°
2026-05-06 14:31 30.11244 38.73605 28043 ft 255 kts 257°
2026-05-06 14:31 30.10905 38.71592 28044 ft 255 kts 257°
2026-05-06 14:32 30.10570 38.69573 28041 ft 256 kts 257°
2026-05-06 14:32 30.10232 38.67555 28039 ft 256 kts 257°
2026-05-06 14:32 30.09892 38.65530 28039 ft 256 kts 257°
2026-05-06 14:32 30.09553 38.63509 28038 ft 256 kts 257°
2026-05-06 14:33 30.09217 38.61507 28037 ft 257 kts 257°
2026-05-06 14:33 30.08876 38.59483 28033 ft 257 kts 257°
2026-05-06 14:33 30.08536 38.57458 28035 ft 257 kts 257°
2026-05-06 14:33 30.08194 38.55431 28035 ft 257 kts 257°
2026-05-06 14:34 30.07853 38.53406 28034 ft 257 kts 257°
2026-05-06 14:34 30.07511 38.51381 28032 ft 257 kts 257°
2026-05-06 14:34 30.07168 38.49353 28032 ft 257 kts 257°
2026-05-06 14:34 30.06825 38.47327 28033 ft 257 kts 257°
2026-05-06 14:35 30.06483 38.45303 28032 ft 257 kts 257°
2026-05-06 14:35 30.06139 38.43273 28031 ft 257 kts 257°
2026-05-06 14:35 30.05794 38.41244 28032 ft 257 kts 257°
2026-05-06 14:35 30.05450 38.39218 28033 ft 257 kts 257°
2026-05-06 14:36 30.05110 38.37216 28030 ft 257 kts 257°
2026-05-06 14:36 30.04765 38.35191 28030 ft 257 kts 257°
2026-05-06 14:36 30.04420 38.33162 28028 ft 257 kts 257°
2026-05-06 14:36 30.04075 38.31136 28029 ft 257 kts 257°
2026-05-06 14:37 30.03728 38.29105 28027 ft 258 kts 257°
2026-05-06 14:37 30.03382 38.27078 28025 ft 258 kts 257°
2026-05-06 14:37 30.03034 38.25046 28026 ft 258 kts 257°
2026-05-06 14:37 30.02687 38.23020 28025 ft 258 kts 257°
2026-05-06 14:38 30.02339 38.20990 28025 ft 258 kts 257°
2026-05-06 14:38 30.01991 38.18958 28027 ft 258 kts 257°
2026-05-06 14:38 30.01643 38.16930 28024 ft 258 kts 257°
2026-05-06 14:38 30.01294 38.14898 28023 ft 258 kts 257°
2026-05-06 14:39 30.00945 38.12867 28021 ft 258 kts 257°
2026-05-06 14:39 30.00599 38.10860 28022 ft 258 kts 257°
2026-05-06 14:39 30.00249 38.08828 28022 ft 258 kts 257°
2026-05-06 14:39 29.99899 38.06795 28021 ft 258 kts 257°
2026-05-06 14:40 29.99548 38.04763 28020 ft 258 kts 257°
2026-05-06 14:40 29.99196 38.02728 28019 ft 258 kts 257°
2026-05-06 14:40 29.98845 38.00696 28017 ft 258 kts 257°
2026-05-06 14:40 29.98493 37.98666 28018 ft 259 kts 257°
2026-05-06 14:41 29.98139 37.96628 28016 ft 259 kts 257°
2026-05-06 14:41 29.97787 37.94594 28017 ft 259 kts 257°
2026-05-06 14:41 29.97434 37.92560 28015 ft 259 kts 257°
2026-05-06 14:41 29.97080 37.90524 28016 ft 259 kts 257°
2026-05-06 14:42 29.96726 37.88488 28017 ft 259 kts 257°
2026-05-06 14:42 29.96371 37.86448 28013 ft 259 kts 257°
2026-05-06 14:42 29.96020 37.84437 28012 ft 259 kts 257°
2026-05-06 14:42 29.95664 37.82395 28014 ft 259 kts 257°
2026-05-06 14:43 29.95307 37.80350 28012 ft 259 kts 257°
2026-05-06 14:43 29.94950 37.78309 28010 ft 259 kts 257°
2026-05-06 14:43 29.94593 37.76270 28012 ft 259 kts 257°
2026-05-06 14:43 29.94236 37.74231 28007 ft 260 kts 257°
2026-05-06 14:44 29.93879 37.72191 28007 ft 260 kts 257°
2026-05-06 14:44 29.93521 37.70149 28006 ft 260 kts 257°
2026-05-06 14:44 29.93163 37.68110 28006 ft 260 kts 257°
2026-05-06 14:45 29.92449 37.64052 28003 ft 260 kts 257°
2026-05-06 14:45 29.92090 37.62011 28006 ft 260 kts 257°
2026-05-06 14:45 29.91731 37.59971 28003 ft 260 kts 257°
2026-05-06 14:45 29.91370 37.57927 28001 ft 260 kts 257°
2026-05-06 14:46 29.91009 37.55886 28003 ft 260 kts 257°
2026-05-06 14:46 29.90650 37.53847 28001 ft 260 kts 257°
2026-05-06 14:46 29.90288 37.51804 28002 ft 260 kts 257°
2026-05-06 14:46 29.89926 37.49760 28002 ft 260 kts 257°
2026-05-06 14:47 29.89564 37.47713 28001 ft 260 kts 257°
2026-05-06 14:47 29.89202 37.45668 28000 ft 260 kts 257°
2026-05-06 14:47 29.88839 37.43622 27998 ft 260 kts 257°
2026-05-06 14:47 29.88478 37.41596 28000 ft 260 kts 257°
2026-05-06 14:48 29.88116 37.39555 27999 ft 260 kts 257°
2026-05-06 14:48 29.87753 37.37512 27999 ft 260 kts 257°
2026-05-06 14:48 29.87388 37.35467 28001 ft 260 kts 257°
2026-05-06 14:48 29.87023 37.33423 28000 ft 260 kts 257°
2026-05-06 14:49 29.86658 37.31377 27997 ft 260 kts 257°
2026-05-06 14:49 29.86294 37.29334 27997 ft 260 kts 257°
2026-05-06 14:49 29.85929 37.27293 28000 ft 260 kts 257°
2026-05-06 14:49 29.85563 37.25248 27998 ft 260 kts 257°
2026-05-06 14:50 29.85196 37.23201 27998 ft 261 kts 257°
2026-05-06 14:50 29.84828 37.21149 27999 ft 261 kts 257°
2026-05-06 14:50 29.84462 37.19107 27999 ft 260 kts 257°
2026-05-06 14:50 29.84095 37.17062 28002 ft 260 kts 257°
2026-05-06 14:51 29.83727 37.15021 28000 ft 261 kts 257°
2026-05-06 14:51 29.83364 37.13000 28001 ft 261 kts 257°
2026-05-06 14:51 29.82996 37.10957 28001 ft 261 kts 257°
2026-05-06 14:51 29.82628 37.08913 28003 ft 261 kts 257°
2026-05-06 14:52 29.82258 37.06863 28002 ft 261 kts 257°
2026-05-06 14:52 29.81889 37.04823 28000 ft 261 kts 257°
2026-05-06 14:52 29.81520 37.02780 28001 ft 261 kts 257°
2026-05-06 14:52 29.81149 37.00731 28000 ft 261 kts 257°
2026-05-06 14:53 29.80779 36.98687 28003 ft 261 kts 257°
2026-05-06 14:53 29.80409 36.96643 28001 ft 261 kts 257°
2026-05-06 14:53 29.80037 36.94595 28004 ft 261 kts 257°
2026-05-06 14:53 29.79665 36.92547 27997 ft 261 kts 257°
2026-05-06 14:54 29.79293 36.90502 27997 ft 261 kts 257°
2026-05-06 14:54 29.78920 36.88452 28000 ft 261 kts 257°
2026-05-06 14:54 29.78548 36.86407 27997 ft 261 kts 257°
2026-05-06 14:54 29.78180 36.84393 27997 ft 261 kts 257°
2026-05-06 14:55 29.77807 36.82346 27998 ft 261 kts 257°
2026-05-06 14:55 29.77432 36.80291 27997 ft 261 kts 257°
2026-05-06 14:55 29.77057 36.78241 27998 ft 261 kts 257°
2026-05-06 14:55 29.76682 36.76196 27998 ft 261 kts 257°
2026-05-06 14:56 29.76307 36.74149 27999 ft 261 kts 257°
2026-05-06 14:56 29.75932 36.72101 27996 ft 262 kts 257°
2026-05-06 14:56 29.75556 36.70051 27994 ft 262 kts 257°
2026-05-06 14:56 29.75193 36.68024 27994 ft 262 kts 259°
2026-05-06 14:57 29.74881 36.65953 27995 ft 262 kts 258°
2026-05-06 14:57 29.74534 36.63892 27997 ft 262 kts 258°
2026-05-06 14:57 29.74193 36.61834 27994 ft 262 kts 258°
2026-05-06 14:57 29.73864 36.59769 27990 ft 262 kts 258°
2026-05-06 14:58 29.73533 36.57704 27989 ft 262 kts 258°
2026-05-06 14:58 29.73200 36.55641 27991 ft 262 kts 258°
2026-05-06 14:58 29.72866 36.53578 27989 ft 262 kts 258°
2026-05-06 14:58 29.72533 36.51520 27989 ft 262 kts 258°
2026-05-06 14:59 29.72199 36.49456 27988 ft 262 kts 258°
2026-05-06 14:59 29.71869 36.47419 27988 ft 262 kts 258°
2026-05-06 14:59 29.71535 36.45356 27986 ft 262 kts 258°
2026-05-06 14:59 29.71200 36.43291 27986 ft 262 kts 258°
2026-05-06 15:00 29.70865 36.41232 27985 ft 262 kts 258°
2026-05-06 15:00 29.70529 36.39169 27986 ft 262 kts 258°
2026-05-06 15:00 29.70193 36.37102 27987 ft 262 kts 258°
2026-05-06 15:00 29.69863 36.35065 27982 ft 262 kts 258°
2026-05-06 15:01 29.69531 36.32979 27986 ft 262 kts 258°
2026-05-06 15:01 29.69206 36.30943 27982 ft 262 kts 258°
2026-05-06 15:01 29.68875 36.28880 27984 ft 262 kts 258°
2026-05-06 15:01 29.68543 36.26820 27984 ft 262 kts 258°
2026-05-06 15:02 29.68212 36.24758 27983 ft 262 kts 258°
2026-05-06 15:02 29.67880 36.22697 27984 ft 262 kts 258°
2026-05-06 15:02 29.67548 36.20637 27985 ft 262 kts 258°
2026-05-06 15:02 29.67215 36.18575 27984 ft 262 kts 258°
2026-05-06 15:03 29.66883 36.16518 27983 ft 262 kts 258°
2026-05-06 15:03 29.66550 36.14459 27983 ft 262 kts 258°
2026-05-06 15:03 29.66217 36.12403 27982 ft 262 kts 258°
2026-05-06 15:03 29.65884 36.10347 27977 ft 262 kts 258°
2026-05-06 15:04 29.65550 36.08287 27978 ft 262 kts 258°
2026-05-06 15:04 29.65217 36.06234 27978 ft 261 kts 258°
2026-05-06 15:04 29.64882 36.04178 27980 ft 262 kts 258°
2026-05-06 15:04 29.64548 36.02121 27981 ft 262 kts 258°
2026-05-06 15:05 29.64213 36.00070 27990 ft 261 kts 258°
2026-05-06 15:05 29.63879 35.98018 27985 ft 261 kts 258°
2026-05-06 15:05 29.63545 35.95964 27985 ft 261 kts 258°
2026-05-06 15:05 29.63209 35.93908 27986 ft 262 kts 258°
2026-05-06 15:06 29.62873 35.91852 27990 ft 262 kts 258°
2026-05-06 15:06 29.62536 35.89796 27991 ft 262 kts 258°
2026-05-06 15:06 29.62202 35.87759 27993 ft 262 kts 258°
2026-05-06 15:06 29.61865 35.85700 27994 ft 262 kts 258°
2026-05-06 15:07 29.61527 35.83636 27995 ft 263 kts 258°
2026-05-06 15:07 29.61186 35.81568 27995 ft 263 kts 258°
2026-05-06 15:07 29.60743 35.79533 27996 ft 263 kts 254°
2026-05-06 15:07 29.60255 35.77506 27998 ft 263 kts 254°
2026-05-06 15:08 29.59781 35.75471 28000 ft 263 kts 255°
2026-05-06 15:08 29.59306 35.73441 28002 ft 263 kts 254°
2026-05-06 15:08 29.58826 35.71407 28003 ft 263 kts 254°
2026-05-06 15:08 29.58351 35.69404 28004 ft 263 kts 254°
2026-05-06 15:09 29.57873 35.67378 28001 ft 263 kts 254°
2026-05-06 15:09 29.57392 35.65342 28003 ft 263 kts 254°
2026-05-06 15:09 29.56911 35.63312 28008 ft 264 kts 254°
2026-05-06 15:09 29.56430 35.61277 28007 ft 264 kts 254°
2026-05-06 15:10 29.55947 35.59247 28008 ft 264 kts 254°
2026-05-06 15:10 29.55463 35.57207 28011 ft 264 kts 255°
2026-05-06 15:10 29.54982 35.55170 28008 ft 264 kts 255°
2026-05-06 15:10 29.54497 35.53128 28009 ft 264 kts 254°
2026-05-06 15:11 29.54013 35.51094 28012 ft 264 kts 254°
2026-05-06 15:11 29.53527 35.49056 28016 ft 264 kts 255°
2026-05-06 15:11 29.53044 35.47013 28010 ft 265 kts 255°
2026-05-06 15:11 29.52574 35.44964 28013 ft 265 kts 255°
2026-05-06 15:12 29.52111 35.42946 28010 ft 265 kts 255°
2026-05-06 15:12 29.51637 35.40904 28011 ft 264 kts 255°
2026-05-06 15:12 29.51164 35.38869 28008 ft 264 kts 255°
2026-05-06 15:12 29.50688 35.36820 28008 ft 264 kts 255°
2026-05-06 15:13 29.50375 35.35469 28008 ft 265 kts 255°
2026-05-06 15:13 29.49902 35.33430 28006 ft 265 kts 255°
2026-05-06 15:13 29.49427 35.31387 28004 ft 265 kts 255°
2026-05-06 15:13 29.48950 35.29338 28004 ft 265 kts 255°
2026-05-06 15:14 29.48474 35.27292 28000 ft 265 kts 255°
2026-05-06 15:14 29.47996 35.25241 28000 ft 265 kts 255°
2026-05-06 15:14 29.47519 35.23195 27998 ft 265 kts 255°
2026-05-06 15:14 29.47041 35.21148 28000 ft 265 kts 255°
2026-05-06 15:15 29.46563 35.19101 27996 ft 266 kts 255°
2026-05-06 15:15 29.46085 35.17055 27993 ft 265 kts 255°
2026-05-06 15:15 29.45614 35.15045 27995 ft 264 kts 255°
2026-05-06 15:15 29.45139 35.13015 27994 ft 264 kts 255°
2026-05-06 15:16 29.44663 35.10983 27995 ft 263 kts 255°
2026-05-06 15:16 29.44187 35.08950 27993 ft 264 kts 255°
2026-05-06 15:16 29.43708 35.06910 27993 ft 265 kts 255°
2026-05-06 15:16 29.43228 35.04871 27993 ft 265 kts 255°
2026-05-06 15:17 29.42749 35.02833 27993 ft 265 kts 255°
2026-05-06 15:17 29.42270 35.00786 27995 ft 266 kts 255°
2026-05-06 15:17 29.41734 34.98753 27989 ft 267 kts 248°
2026-05-06 15:17 29.40749 34.96945 27988 ft 270 kts 233°
2026-05-06 15:18 29.39336 34.95508 27987 ft 274 kts 219°
2026-05-06 15:18 29.37753 34.94277 27986 ft 274 kts 219°
2026-05-06 15:18 29.36186 34.93038 27989 ft 274 kts 219°
2026-05-06 15:18 29.34636 34.91808 27986 ft 274 kts 219°
2026-05-06 15:19 29.33064 34.90569 27983 ft 274 kts 219°
2026-05-06 15:19 29.31494 34.89332 27983 ft 274 kts 219°
2026-05-06 15:19 29.29921 34.88092 27983 ft 274 kts 219°
2026-05-06 15:19 29.28352 34.86855 27979 ft 274 kts 219°
2026-05-06 15:20 29.26780 34.85616 27977 ft 274 kts 219°
2026-05-06 15:20 29.25211 34.84381 27974 ft 274 kts 219°
2026-05-06 15:20 29.23641 34.83145 27972 ft 274 kts 219°
2026-05-06 15:20 29.22070 34.81908 27972 ft 274 kts 219°
2026-05-06 15:21 29.20500 34.80673 27971 ft 274 kts 219°
2026-05-06 15:21 29.18947 34.79452 27970 ft 274 kts 219°
2026-05-06 15:21 29.17380 34.78221 27967 ft 274 kts 219°
2026-05-06 15:21 29.15810 34.76987 27963 ft 274 kts 219°
2026-05-06 15:22 29.14237 34.75751 27963 ft 274 kts 219°
2026-05-06 15:22 29.12669 34.74520 27965 ft 274 kts 219°
2026-05-06 15:22 29.11096 34.73286 27963 ft 274 kts 219°
2026-05-06 15:22 29.09527 34.72055 27966 ft 274 kts 219°
2026-05-06 15:23 29.07955 34.70821 27966 ft 274 kts 219°
2026-05-06 15:23 29.06461 34.69500 27965 ft 269 kts 229°
2026-05-06 15:23 29.05356 34.67795 27967 ft 266 kts 243°
2026-05-06 15:23 29.04692 34.65835 27970 ft 265 kts 257°
2026-05-06 15:24 29.04508 34.63742 27977 ft 266 kts 270°
2026-05-06 15:24 29.04820 34.61675 27977 ft 270 kts 284°
2026-05-06 15:24 29.05429 34.59640 27990 ft 270 kts 285°
2026-05-06 15:24 29.06026 34.57600 27993 ft 270 kts 284°
2026-05-06 15:25 29.06618 34.55558 27989 ft 271 kts 284°
2026-05-06 15:25 29.07220 34.53512 27988 ft 271 kts 285°
2026-05-06 15:25 29.07824 34.51468 27996 ft 271 kts 285°
2026-05-06 15:25 29.08423 34.49425 27995 ft 271 kts 285°
2026-05-06 15:26 29.09021 34.47378 28001 ft 271 kts 285°
2026-05-06 15:26 29.09619 34.45340 28003 ft 270 kts 285°
2026-05-06 15:26 29.10217 34.43297 28000 ft 270 kts 285°
2026-05-06 15:26 29.10813 34.41258 28006 ft 270 kts 285°
2026-05-06 15:27 29.11400 34.39251 28010 ft 270 kts 285°
2026-05-06 15:27 29.11995 34.37213 28011 ft 270 kts 285°
2026-05-06 15:27 29.12589 34.35175 28009 ft 270 kts 285°
2026-05-06 15:27 29.13182 34.33146 28011 ft 269 kts 285°
2026-05-06 15:28 29.13774 34.31115 28017 ft 269 kts 285°
2026-05-06 15:28 29.14366 34.29082 28020 ft 269 kts 285°
2026-05-06 15:28 29.14956 34.27057 28024 ft 269 kts 285°
2026-05-06 15:28 29.15547 34.25025 28024 ft 269 kts 285°
2026-05-06 15:29 29.16138 34.22994 28023 ft 269 kts 285°
2026-05-06 15:29 29.16728 34.20964 28024 ft 269 kts 285°
2026-05-06 15:29 29.17319 34.18929 28022 ft 269 kts 285°
2026-05-06 15:29 29.17909 34.16898 28029 ft 269 kts 285°
2026-05-06 15:30 29.18497 34.14869 28027 ft 268 kts 285°
2026-05-06 15:30 29.19086 34.12837 28028 ft 269 kts 285°
2026-05-06 15:30 29.19669 34.10825 28024 ft 269 kts 285°
2026-05-06 15:30 29.20258 34.08792 28026 ft 269 kts 285°
2026-05-06 15:31 29.20845 34.06761 28028 ft 269 kts 285°
2026-05-06 15:31 29.21434 34.04723 28027 ft 269 kts 285°
2026-05-06 15:31 29.22025 34.02682 28032 ft 269 kts 285°
2026-05-06 15:32 29.23202 33.98604 28025 ft 270 kts 285°
2026-05-06 15:32 29.23783 33.96589 28029 ft 270 kts 285°
2026-05-06 15:32 29.24370 33.94553 28028 ft 270 kts 285°
2026-05-06 15:32 29.24959 33.92511 28029 ft 270 kts 285°
2026-05-06 15:33 29.25548 33.90468 28026 ft 270 kts 285°
2026-05-06 15:33 29.26137 33.88423 28029 ft 270 kts 285°
2026-05-06 15:33 29.26725 33.86378 28028 ft 270 kts 285°
2026-05-06 15:33 29.27313 33.84332 28027 ft 270 kts 285°
2026-05-06 15:34 29.27900 33.82289 28027 ft 270 kts 285°
2026-05-06 15:34 29.28489 33.80243 28026 ft 270 kts 285°
2026-05-06 15:34 29.29074 33.78203 28029 ft 270 kts 285°
2026-05-06 15:34 29.29662 33.76151 28033 ft 270 kts 285°
2026-05-06 15:35 29.30241 33.74130 28030 ft 270 kts 285°
2026-05-06 15:35 29.30827 33.72085 28033 ft 270 kts 285°
2026-05-06 15:35 29.31414 33.70034 28030 ft 271 kts 285°
2026-05-06 15:35 29.32001 33.67984 28033 ft 271 kts 285°
2026-05-06 15:36 29.32587 33.65932 28032 ft 271 kts 285°
2026-05-06 15:36 29.33173 33.63881 28032 ft 271 kts 285°
2026-05-06 15:36 29.33760 33.61826 28032 ft 270 kts 285°
2026-05-06 15:36 29.34343 33.59780 28033 ft 270 kts 285°
2026-05-06 15:37 29.34928 33.57731 28026 ft 270 kts 285°
2026-05-06 15:37 29.35511 33.55684 28030 ft 270 kts 285°
2026-05-06 15:37 29.36094 33.53638 28034 ft 270 kts 285°
2026-05-06 15:37 29.36676 33.51591 28032 ft 270 kts 285°
2026-05-06 15:38 29.37252 33.49566 28035 ft 270 kts 285°
2026-05-06 15:38 29.37833 33.47519 28032 ft 270 kts 285°
2026-05-06 15:38 29.38414 33.45474 28033 ft 270 kts 285°
2026-05-06 15:38 29.38994 33.43432 28033 ft 269 kts 285°
2026-05-06 15:39 29.39575 33.41384 28035 ft 269 kts 285°
2026-05-06 15:39 29.40154 33.39340 28034 ft 269 kts 285°
2026-05-06 15:39 29.40734 33.37294 28035 ft 269 kts 285°
2026-05-06 15:39 29.41313 33.35247 28035 ft 269 kts 285°
2026-05-06 15:40 29.41899 33.33175 27775 ft 277 kts 285°
2026-05-06 15:40 29.42495 33.31072 27523 ft 284 kts 285°
2026-05-06 15:40 29.43110 33.28898 27270 ft 289 kts 285°
2026-05-06 15:40 29.43733 33.26694 27020 ft 292 kts 285°
2026-05-06 15:41 29.44362 33.24457 26772 ft 296 kts 285°
2026-05-06 15:41 29.44994 33.22189 26528 ft 301 kts 285°
2026-05-06 15:41 29.45640 33.19905 26279 ft 301 kts 286°
2026-05-06 15:41 29.46290 33.17614 26038 ft 302 kts 285°
2026-05-06 15:42 29.46938 33.15313 25797 ft 303 kts 285°
2026-05-06 15:42 29.47586 33.13002 25557 ft 304 kts 285°
2026-05-06 15:42 29.48235 33.10691 25323 ft 305 kts 285°
2026-05-06 15:42 29.48885 33.08379 25090 ft 305 kts 285°
2026-05-06 15:43 29.49536 33.06055 24852 ft 306 kts 285°
2026-05-06 15:43 29.50188 33.03726 24619 ft 307 kts 285°
2026-05-06 15:43 29.50836 33.01418 24390 ft 308 kts 285°
2026-05-06 15:43 29.51492 32.99075 24162 ft 308 kts 285°
2026-05-06 15:44 29.52149 32.96726 23937 ft 309 kts 286°
2026-05-06 15:44 29.52807 32.94371 23714 ft 310 kts 286°
2026-05-06 15:44 29.53468 32.92011 23473 ft 311 kts 286°
2026-05-06 15:44 29.54127 32.89646 23197 ft 312 kts 286°
2026-05-06 15:45 29.54789 32.87271 22932 ft 312 kts 286°
2026-05-06 15:45 29.55451 32.84895 22673 ft 313 kts 286°
2026-05-06 15:45 29.56119 32.82502 22409 ft 314 kts 286°
2026-05-06 15:45 29.56784 32.80112 22152 ft 314 kts 286°
2026-05-06 15:46 29.57449 32.77717 21890 ft 314 kts 286°
2026-05-06 15:46 29.58113 32.75330 21641 ft 314 kts 286°
2026-05-06 15:46 29.58767 32.72974 21394 ft 314 kts 286°
2026-05-06 15:46 29.59430 32.70581 21143 ft 313 kts 286°
2026-05-06 15:47 29.60083 32.68193 20896 ft 313 kts 284°
2026-05-06 15:47 29.60620 32.65773 20647 ft 312 kts 283°
2026-05-06 15:47 29.61168 32.63356 20400 ft 312 kts 283°
2026-05-06 15:47 29.61729 32.60943 20170 ft 311 kts 283°
2026-05-06 15:48 29.62276 32.58539 19929 ft 311 kts 283°
2026-05-06 15:48 29.62814 32.56158 19688 ft 310 kts 283°
2026-05-06 15:48 29.63361 32.53753 19453 ft 310 kts 283°
2026-05-06 15:48 29.63903 32.51360 19221 ft 309 kts 283°
2026-05-06 15:49 29.64444 32.48969 18990 ft 309 kts 283°
2026-05-06 15:49 29.64984 32.46586 18751 ft 308 kts 283°
2026-05-06 15:49 29.65526 32.44212 18533 ft 305 kts 283°
2026-05-06 15:49 29.66060 32.41859 18298 ft 303 kts 283°
2026-05-06 15:50 29.66576 32.39516 18039 ft 302 kts 283°
2026-05-06 15:50 29.67104 32.37175 17781 ft 302 kts 283°
2026-05-06 15:50 29.67633 32.34843 17523 ft 301 kts 283°
2026-05-06 15:50 29.68150 32.32543 17271 ft 300 kts 283°
2026-05-06 15:51 29.68672 32.30220 17022 ft 299 kts 283°
2026-05-06 15:51 29.69193 32.27901 16770 ft 299 kts 283°
2026-05-06 15:51 29.69713 32.25588 16523 ft 298 kts 283°
2026-05-06 15:51 29.70229 32.23283 16275 ft 297 kts 283°
2026-05-06 15:52 29.70744 32.20983 16033 ft 296 kts 283°
2026-05-06 15:52 29.71257 32.18691 15789 ft 295 kts 283°
2026-05-06 15:52 29.71763 32.16431 15549 ft 295 kts 283°
2026-05-06 15:52 29.72272 32.14150 15307 ft 294 kts 283°
2026-05-06 15:53 29.72780 32.11877 15072 ft 293 kts 283°
2026-05-06 15:53 29.73287 32.09607 14841 ft 292 kts 283°
2026-05-06 15:53 29.73790 32.07346 14607 ft 291 kts 283°